Location: Derby
(52.9213°N, 1.4761°W)
Time: 01:41:37
(UTC+01:00)

Tiangong - Pass Details

Date: 22 April 2024
Orbit: 371 x 374 km, 41.5° (Epoch: 23 May)

Event Time Altitude Azimuth Distance (km) Brightness Sun altitude
Rises 21:26:10 0° 239° (WSW) 2,258 2.1 -9.7°
Reaches altitude 10° 21:29:42 10° 198° (SSW) 1,396 0.5 -10.1°
Maximum altitude 21:30:24 11° 185° (S) 1,363 0.3 -10.2°
Drops below altitude 10° 21:31:06 10° 172° (S) 1,393 0.3 -10.2°
Enters shadow 21:31:17 10° 169° (SSE) 1,411 0.3 -10.3°
